User: anonymous   Login
Location: Heisede
(52.2582°N, 9.8523°E)
Time: 23:07:15
(UTC+00:00)
Language:

Meteor 1-21 - Orbit

View from above orbital plane
View from above orbital plane
View from above satellite
View from above satellite

Ground track
Ground track

The orbit is defined by the following mean orbital elements,

1 07714U          26067.44053771 +.00000000 +00000-0 +52842-4 0 00009
2 07714  81.1956 327.8997 0027955 275.0393  84.7586 14.08462931    09
Epoch (UTC): 08 March 2026 10:34:22
Eccentricity: 0.0027955
inclination: 81.1956°
perigee height: 844 km
apogee height: 885 km
right ascension of ascending node: 327.8997°
argument of perigee: 275.0393°
revolutions per day: 14.08462931
mean anomaly at epoch: 84.7586°

The dashed part of the orbit path shows where the satellite is in the earth's shadow,  

DLR